Torna al catalogo

INMARSAT 4-F2

AttivoNavigazioneGEO
NORAD 28899·PAYLOAD·🇮🇲 IM

Lanciato Nov 8, 2005 da Sea Launch Platform

Loading…

TLE

AggiornatoSource: Space-Track

Epoca: Sep 14, 2026, 19:37 UTC

1 28899U 05044A   26257.81739447 -.00000266  00000-0  00000-0 0  9999
2 28899   5.2113  43.7237 0002235 132.3761 255.4613  1.00272480 76420

Traccia INMARSAT 4-F2 in tempo reale con AllMySat

Download on the App Store